Wind_Speed
13 13 12 11 12 10 7 6 5 5 4 3 3 3 2 2 2 1 2 2 3 2 2 2 2 2 2 2 2 2 2 3 3 3 4 5 5 7 8 8 8 8 8 8 8 8 8 7 7
13 12 12 15 12 9 8 7 6 5 4 4 4 3 3 2 2 2 2 2 3 3 3 3 3 2 2 1 1 2 2 3 3 4 4 6 7 8 8 9 8 8 8 8 7 8 8 9 8
14 13 15 14 10 9 9 7 6 5 4 4 4 4 4 3 2 2 2 3 4 4 4 3 3 4 3 2 2 1 1 3 3 4 5 6 7 8 8 8 8 7 7 8 9 8 9 8 7
14 16 16 12 11 9 10 9 7 6 5 4 4 4 3 3 3 3 3 4 4 4 5 5 4 5 4 3 2 1 2 3 3 4 5 7 8 8 8 8 8 8 8 8 8 8 8 7 6
15 17 14 11 10 10 10 8 7 7 5 5 5 5 4 3 3 4 4 4 5 4 5 5 5 5 4 4 3 2 1 4 4 4 5 6 7 7 8 7 8 7 7 7 7 7 7 6 5
16 17 12 9 9 10 10 8 7 7 7 7 6 6 5 4 4 4 4 5 5 5 5 5 5 4 5 4 3 3 3 4 5 5 6 6 6 7 7 7 7 6 6 7 6 5 6 6 5
16 14 9 8 9 9 9 9 7 7 7 7 7 6 6 6 5 5 5 5 5 5 5 5 5 5 5 5 4 3 4 4 5 5 6 6 6 7 6 6 6 5 5 5 5 5 5 5 4
14 12 6 6 8 9 8 8 8 7 7 7 7 7 6 6 5 5 6 6 6 6 6 5 5 5 5 5 5 4 4 5 5 5 6 6 6 7 7 6 6 5 5 4 4 4 4 3 3
12 9 5 6 7 8 7 7 8 8 7 7 8 7 7 6 6 6 6 6 6 6 6 6 6 6 6 5 5 5 5 5 5 5 6 6 7 6 6 6 5 5 4 4 3 3 3 3 2
8 5 5 6 7 8 8 8 8 8 7 8 8 7 7 7 7 6 7 7 6 6 6 7 7 7 8 7 7 6 5 5 5 5 5 6 6 6 6 5 4 4 4 3 3 3 3 2 2
4 4 5 6 7 8 8 9 8 6 6 8 8 8 8 8 8 7 6 6 6 6 6 7 8 8 8 8 8 7 6 5 5 4 5 5 6 6 5 5 4 3 3 3 2 2 2 2 2
4 4 5 6 6 7 8 7 7 6 6 7 7 8 8 8 8 7 7 6 6 6 6 6 7 8 7 7 7 7 6 6 4 4 4 4 5 5 5 5 4 3 2 2 2 2 2 1 1
5 4 5 6 7 7 7 8 7 6 6 7 7 7 7 8 8 7 6 6 6 6 6 7 7 7 7 7 6 6 6 6 5 4 4 3 4 4 4 4 3 3 3 2 1 1 1 1 1
4 4 4 6 7 7 7 6 6 7 7 7 7 7 7 8 8 7 7 6 6 6 6 6 6 6 7 6 6 6 6 6 6 6 5 4 3 4 4 3 3 3 3 2 2 1 0 1 1
3 3 4 4 6 7 7 6 5 6 6 6 6 6 6 7 7 8 7 6 6 6 6 6 6 6 6 6 6 5 5 6 6 6 5 4 4 3 3 3 3 2 2 2 2 2 2 2 2
2 1 3 4 4 7 7 7 6 6 6 6 6 6 6 7 7 7 7 6 6 6 6 6 6 6 6 6 5 5 5 5 6 6 5 4 3 3 3 3 3 2 2 2 2 2 2 2 3
1 2 4 5 4 5 6 6 6 5 6 6 6 6 6 6 7 7 6 6 6 6 6 6 6 5 6 6 5 5 5 5 5 5 5 4 3 4 3 3 4 3 3 3 3 3 3 3 3
1 2 2 3 4 3 5 5 5 6 6 6 6 6 6 6 6 6 6 6 6 5 5 6 6 5 5 5 5 5 5 5 6 5 5 4 3 4 3 4 4 4 4 4 4 4 4 4 4
1 3 4 4 4 2 3 4 5 5 6 6 7 6 6 6 5 5 6 5 5 5 5 5 5 5 5 5 5 5 6 5 6 6 5 4 4 4 4 4 4 5 5 5 4 5 5 5 5
4 5 4 5 3 3 4 5 4 5 6 7 7 7 6 6 5 5 5 5 5 4 5 5 5 5 5 5 5 5 6 6 6 6 5 5 4 3 4 4 5 5 5 5 5 5 5 6 6
7 6 5 5 4 4 5 6 5 5 6 7 7 6 6 6 5 4 5 5 5 5 5 5 6 6 5 5 5 6 6 6 6 5 5 5 4 4 4 4 5 5 5 6 6 6 6 6 7
8 7 7 6 6 7 7 9 6 4 6 7 7 7 6 6 5 5 4 5 5 5 5 5 6 6 6 6 5 6 6 6 6 6 5 5 5 4 4 4 5 5 6 6 7 7 7 7 8
10 9 9 8 8 7 6 10 9 6 5 5 6 7 7 6 6 6 5 5 5 5 5 5 6 6 7 7 7 7 7 7 7 7 5 5 6 6 6 5 5 6 6 7 8 8 8 8 8
12 10 10 9 10 10 7 9 8 7 6 6 6 7 8 8 7 7 6 6 6 6 6 6 6 6 7 7 8 8 9 9 9 7 6 6 7 7 7 6 7 7 8 8 9 9 9 9 9
14 12 10 10 9 10 7 8 8 8 10 10 9 9 8 8 8 8 7 7 7 7 7 7 7 7 8 8 8 9 9 9 9 9 8 8 8 8 8 7 7 8 9 9 10 10 10 11 11
14 12 11 11 9 9 9 9 9 10 12 12 10 10 10 9 9 10 10 9 9 9 9 9 8 8 9 9 9 10 10 10 10 11 10 9 9 9 9 9 9 9 10 10 11 11 11 11 11
15 14 13 14 13 12 10 10 11 13 13 12 12 12 12 11 11 11 11 12 11 11 12 10 10 10 10 10 10 11 11 11 11 12 12 12 12 11 11 11 11 11 12 12 12 12 13 13 14
17 16 15 15 14 15 13 12 14 15 13 12 12 13 13 13 13 13 13 13 13 13 13 12 12 12 12 12 12 12 12 13 13 14 14 13 13 13 12 12 13 13 14 13 13 13 14 15 15
18 18 19 18 16 15 13 13 13 17 16 14 14 14 15 15 14 14 14 15 15 14 13 14 14 14 14 13 13 14 14 14 14 15 15 15 14 14 15 14 14 14 14 15 14 15 15 16 16
20 21 21 20 19 18 17 18 16 16 15 16 16 17 18 17 17 17 17 17 17 16 16 15 15 15 16 15 15 15 15 16 16 16 16 16 16 16 15 16 16 16 16 16 16 17 17 17 18
Wind_Direction
82 81 81 76 64 56 49 47 37 33 32 37 42 42 36 39 46 46 54 43 35 35 51 59 44 31 34 63 47 32 53 75 83 95 87 85 100 116 123 129 132 132 134 132 136 142 138 135 134
81 79 79 61 51 36 35 32 32 21 27 35 36 30 31 32 46 55 40 32 22 23 39 46 43 25 24 40 40 38 65 76 78 95 99 101 107 113 118 124 131 132 137 138 139 133 132 130 128
80 75 70 54 45 35 31 27 28 16 20 27 25 23 27 37 44 43 35 28 30 33 51 55 51 37 29 22 5 19 79 88 92 94 108 107 107 111 119 123 125 129 134 138 135 130 133 126 122
82 72 63 52 39 29 23 22 23 18 19 22 19 18 29 46 50 46 44 38 43 48 52 53 45 40 32 19 4 17 80 93 104 102 115 116 116 117 120 123 125 133 130 130 129 125 129 122 116
83 68 55 38 30 25 21 22 23 22 22 29 28 24 39 59 64 53 48 43 45 55 54 55 42 39 31 28 41 44 92 105 108 115 123 118 118 117 120 128 123 123 118 118 128 123 123 118 110
74 62 47 25 20 19 20 22 25 28 34 33 33 34 54 62 67 59 54 46 44 51 49 48 45 39 40 40 41 56 79 97 114 124 129 126 120 117 121 125 123 124 122 125 129 126 134 126 115
80 72 47 20 14 14 19 24 30 35 37 37 40 41 52 57 65 61 53 49 51 54 53 55 48 44 48 53 59 59 92 106 111 118 125 125 122 119 119 126 128 130 132 131 133 132 124 116 113
87 80 54 28 17 11 18 26 31 33 36 40 43 44 48 56 63 62 57 54 53 50 52 56 43 41 47 51 56 71 85 99 107 117 121 116 119 122 122 127 130 134 137 133 126 119 114 106 103
80 72 53 40 24 13 16 22 26 34 35 41 40 43 45 54 62 62 55 47 44 45 46 49 49 50 52 52 59 69 77 96 101 106 109 113 115 121 125 129 131 133 127 124 116 117 116 115 107
77 63 43 39 25 19 13 18 21 24 32 37 40 43 48 54 60 60 55 48 43 41 41 47 52 56 59 61 69 75 74 94 99 105 105 109 109 116 117 125 127 122 120 122 119 124 134 124 102
76 57 36 30 27 23 24 19 20 20 31 38 42 46 50 53 54 54 55 51 45 41 43 48 55 60 62 67 71 69 70 86 93 97 95 107 111 115 112 114 115 114 114 118 123 122 118 109 82
74 59 42 29 27 28 25 26 21 23 30 36 42 46 47 49 50 50 54 56 49 44 46 52 56 58 63 65 67 68 69 67 73 92 91 108 111 112 108 106 102 104 94 93 104 106 113 109 71
73 56 35 30 27 29 26 22 20 31 32 34 36 45 48 47 45 44 48 52 49 49 50 55 55 58 59 64 65 68 65 60 62 68 73 89 108 111 107 105 93 81 65 68 81 96 84 66 51
93 72 42 28 20 21 22 23 21 30 32 35 35 37 38 37 37 40 43 46 49 55 57 55 56 57 56 57 62 59 58 59 54 51 56 75 93 105 101 85 75 65 56 55 58 83 20 13 16
114 84 44 23 3 5 12 8 16 14 23 25 27 28 28 30 29 32 36 43 50 55 57 56 52 52 53 53 55 54 51 48 46 41 41 54 57 64 74 55 55 50 39 34 21 5 349 343 346
137 31 16 10 358 350 359 1 353 358 12 15 15 20 23 27 26 28 33 44 48 49 49 47 46 45 47 49 50 48 42 32 31 33 37 41 40 40 53 43 35 22 20 17 9 6 344 332 332
144 360 2 351 355 348 349 356 338 349 1 5 6 12 15 19 21 25 30 37 44 45 44 42 42 40 40 41 40 36 29 22 22 25 23 24 26 36 40 26 18 7 357 359 353 348 342 337 332
92 333 315 309 322 329 331 345 334 336 347 353 1 7 9 8 16 22 26 31 37 40 38 35 37 34 34 33 30 23 20 17 15 17 15 18 26 23 23 12 5 359 350 344 346 342 331 328 328
213 258 274 270 290 296 310 330 328 332 335 340 350 360 4 4 5 9 17 26 30 33 30 26 25 26 24 24 22 16 13 12 12 14 12 10 10 12 12 7 358 356 350 351 349 346 340 329 319
224 243 273 275 279 295 296 307 324 329 325 328 336 344 352 357 0 5 11 20 26 29 30 25 23 17 15 11 6 7 3 3 5 4 6 6 360 354 353 358 356 350 346 342 342 334 334 333 326
233 237 247 266 268 267 283 294 291 300 315 321 325 330 339 344 346 354 6 13 17 16 15 15 15 11 6 4 358 352 352 355 355 353 352 353 351 340 344 345 346 345 339 340 336 331 327 324 323
243 244 252 259 256 262 265 278 269 274 306 317 321 322 328 329 336 335 345 353 357 359 4 1 358 353 348 348 345 341 336 337 340 339 336 339 339 332 324 324 326 329 332 328 326 326 320 316 319
242 244 248 251 252 255 263 279 280 258 267 296 312 310 310 306 311 323 328 329 336 342 347 349 348 343 339 333 328 328 328 328 328 328 328 328 331 332 320 307 307 314 319 317 316 315 311 311 315
241 243 246 249 253 250 251 271 282 281 277 284 290 297 299 297 299 306 311 313 316 323 327 332 333 332 333 329 324 319 322 323 324 324 320 318 319 324 322 313 306 305 311 311 311 310 304 304 309
237 236 250 267 269 275 269 264 270 276 282 281 275 286 295 294 290 291 295 300 302 309 311 317 321 322 322 321 318 316 319 324 327 325 319 317 316 317 317 316 313 311 312 310 310 309 305 304 304
241 234 242 255 264 269 269 261 266 274 276 278 275 283 288 287 285 285 289 288 295 297 300 304 307 308 309 311 312 313 315 318 322 322 314 308 311 313 311 309 313 312 311 310 310 310 306 308 305
238 242 244 256 257 256 255 261 263 274 278 282 284 281 280 283 283 282 286 288 289 293 293 294 300 301 301 302 305 308 311 312 313 315 311 306 304 304 304 306 304 301 303 304 305 306 306 307 307
238 234 240 244 257 258 250 250 261 269 274 273 279 281 280 278 278 280 283 287 287 285 287 290 291 296 298 299 301 304 306 307 308 309 310 304 300 297 299 301 300 300 301 303 302 304 303 303 304
244 237 237 243 245 258 264 261 264 268 267 268 271 279 284 280 275 276 279 281 284 283 281 284 287 290 292 294 296 299 303 305 305 306 306 304 299 296 294 297 299 300 302 302 303 304 305 304 302
241 240 237 242 244 245 255 263 266 266 269 271 267 270 275 276 275 274 275 277 280 280 279 280 283 286 287 289 293 296 299 302 303 303 304 304 303 301 296 296 297 298 300 301 302 304 303 303 302
Height
5884 5884 5884 5884 5884 5884 5883 5883 5883 5882 5881 5881 5880 5879 5879 5878 5879 5880 5878 5876 5877 5876 5876 5875 5875 5875 5875 5874 5874 5874 5873 5872 5871 5870 5870 5869 5868 5868 5869 5870 5871 5873 5875 5876 5877 5878 5880 5881 5882
5886 5887 5886 5885 5886 5886 5886 5885 5884 5883 5883 5882 5881 5880 5879 5879 5879 5879 5878 5878 5878 5877 5877 5876 5876 5876 5876 5875 5875 5874 5874 5873 5872 5871 5871 5871 5870 5870 5871 5872 5873 5875 5876 5878 5879 5881 5882 5883 5884
5888 5888 5887 5888 5888 5889 5888 5887 5885 5885 5883 5883 5882 5881 5880 5880 5880 5880 5879 5879 5879 5878 5878 5877 5877 5877 5876 5876 5875 5874 5874 5873 5873 5872 5872 5872 5872 5873 5873 5874 5875 5877 5878 5879 5881 5882 5883 5884 5886
5890 5889 5889 5892 5891 5891 5889 5888 5887 5885 5884 5883 5883 5882 5880 5881 5881 5881 5881 5880 5880 5879 5879 5878 5878 5878 5877 5876 5875 5874 5874 5873 5873 5873 5873 5873 5874 5875 5875 5877 5878 5879 5880 5881 5882 5883 5885 5886 5887
5891 5890 5893 5894 5894 5893 5891 5889 5888 5887 5886 5885 5884 5882 5880 5881 5882 5882 5882 5882 5881 5880 5880 5880 5879 5879 5878 5877 5876 5875 5874 5873 5873 5874 5874 5875 5876 5877 5878 5879 5880 5880 5881 5883 5884 5885 5886 5888 5889
5892 5893 5897 5897 5896 5895 5893 5891 5890 5889 5887 5886 5885 5883 5882 5883 5883 5883 5883 5883 5882 5882 5881 5880 5880 5880 5879 5878 5876 5875 5874 5873 5873 5874 5875 5877 5878 5879 5880 5881 5881 5882 5883 5884 5886 5887 5888 5889 5890
5896 5898 5900 5900 5898 5896 5894 5893 5892 5890 5889 5888 5887 5886 5885 5885 5885 5885 5885 5884 5883 5883 5883 5882 5882 5881 5880 5878 5877 5876 5875 5875 5875 5875 5876 5878 5879 5881 5882 5883 5883 5884 5885 5886 5887 5888 5889 5890 5891
5899 5901 5902 5901 5900 5898 5896 5895 5894 5893 5891 5891 5889 5888 5887 5887 5887 5887 5886 5886 5885 5885 5884 5884 5883 5881 5880 5879 5878 5877 5877 5877 5877 5877 5878 5880 5881 5882 5883 5884 5885 5886 5886 5887 5888 5889 5890 5891 5892
5902 5904 5903 5903 5902 5900 5898 5897 5896 5894 5893 5892 5892 5891 5890 5889 5888 5888 5888 5887 5887 5886 5886 5885 5884 5883 5881 5880 5879 5879 5879 5879 5879 5880 5881 5882 5883 5884 5885 5886 5887 5887 5888 5889 5889 5890 5891 5892 5892
5905 5905 5905 5904 5904 5902 5900 5898 5897 5896 5895 5894 5894 5893 5892 5891 5890 5890 5890 5889 5889 5888 5887 5886 5886 5884 5883 5881 5880 5881 5882 5882 5882 5883 5883 5884 5885 5886 5887 5887 5888 5889 5889 5890 5890 5891 5892 5893 5893
5907 5907 5906 5906 5904 5903 5902 5901 5899 5898 5897 5896 5896 5895 5894 5893 5892 5892 5891 5891 5890 5890 5889 5888 5887 5887 5886 5884 5884 5884 5885 5885 5885 5885 5885 5886 5887 5888 5888 5889 5889 5890 5890 5891 5891 5892 5892 5893 5894
5909 5908 5908 5907 5906 5905 5904 5903 5902 5900 5900 5898 5898 5897 5896 5895 5894 5894 5893 5893 5892 5892 5891 5890 5890 5889 5888 5888 5888 5887 5887 5887 5887 5887 5888 5888 5888 5889 5890 5890 5891 5891 5892 5892 5893 5893 5894 5894 5895
5909 5910 5909 5908 5907 5906 5906 5904 5903 5902 5901 5901 5900 5899 5898 5897 5897 5896 5895 5895 5894 5894 5893 5892 5892 5892 5891 5891 5890 5890 5890 5890 5890 5890 5890 5890 5890 5891 5891 5892 5892 5892 5893 5893 5894 5894 5894 5895 5895
5910 5910 5910 5909 5909 5908 5907 5906 5905 5904 5903 5903 5902 5901 5900 5899 5898 5898 5897 5897 5896 5896 5895 5894 5894 5894 5894 5893 5893 5893 5893 5892 5892 5892 5892 5891 5892 5892 5892 5893 5893 5894 5894 5894 5894 5894 5895 5895 5895
5910 5911 5911 5911 5910 5909 5909 5907 5905 5905 5905 5904 5903 5902 5902 5901 5900 5899 5899 5898 5898 5897 5897 5897 5896 5896 5896 5895 5895 5895 5894 5894 5894 5894 5893 5893 5893 5893 5893 5894 5894 5895 5894 5895 5895 5895 5895 5895 5895
5910 5911 5911 5912 5912 5911 5911 5909 5908 5907 5906 5906 5905 5904 5903 5903 5902 5901 5900 5900 5899 5899 5899 5898 5898 5898 5897 5897 5897 5897 5896 5896 5896 5895 5895 5895 5895 5894 5894 5895 5895 5895 5895 5895 5895 5895 5895 5895 5895
5909 5911 5912 5912 5912 5912 5912 5911 5909 5908 5907 5907 5906 5906 5905 5904 5903 5903 5902 5901 5901 5900 5900 5900 5900 5899 5899 5899 5899 5899 5898 5898 5898 5897 5897 5896 5896 5896 5896 5896 5896 5896 5896 5896 5895 5895 5895 5895 5895
5910 5912 5913 5913 5913 5913 5912 5911 5910 5909 5908 5908 5907 5907 5906 5905 5905 5904 5903 5903 5902 5902 5902 5901 5901 5901 5901 5901 5900 5900 5900 5899 5899 5898 5898 5898 5897 5897 5897 5897 5897 5896 5896 5896 5896 5896 5895 5895 5895
5910 5912 5913 5914 5913 5913 5913 5912 5911 5909 5909 5909 5908 5907 5907 5907 5906 5905 5905 5904 5904 5903 5903 5903 5902 5902 5902 5902 5902 5902 5901 5901 5900 5899 5899 5899 5899 5898 5898 5898 5897 5897 5897 5896 5896 5896 5895 5895 5895
5910 5911 5912 5913 5913 5912 5912 5912 5911 5910 5910 5910 5909 5908 5907 5907 5906 5906 5906 5905 5905 5904 5904 5904 5903 5903 5903 5903 5903 5903 5902 5901 5901 5900 5899 5899 5899 5899 5899 5898 5898 5898 5897 5897 5897 5896 5896 5895 5895
5909 5910 5912 5912 5912 5911 5912 5911 5911 5910 5909 5909 5910 5909 5907 5907 5907 5907 5907 5906 5906 5905 5905 5905 5904 5904 5904 5904 5903 5903 5903 5902 5901 5901 5900 5900 5899 5899 5899 5899 5899 5898 5898 5897 5896 5896 5895 5895 5894
5908 5909 5910 5911 5910 5910 5911 5910 5909 5909 5909 5909 5909 5908 5907 5907 5907 5907 5907 5907 5906 5906 5906 5905 5905 5905 5905 5904 5904 5904 5903 5903 5902 5901 5900 5900 5900 5899 5899 5899 5899 5898 5898 5897 5896 5895 5894 5894 5893
5906 5907 5908 5909 5908 5908 5909 5909 5908 5906 5908 5909 5909 5908 5908 5907 5907 5907 5907 5907 5907 5906 5906 5906 5906 5905 5905 5905 5904 5904 5903 5903 5902 5901 5901 5900 5900 5899 5899 5898 5898 5897 5897 5896 5895 5894 5893 5893 5892
5905 5906 5907 5906 5905 5906 5907 5908 5907 5906 5906 5907 5908 5908 5908 5907 5907 5907 5906 5906 5906 5906 5906 5906 5905 5905 5905 5904 5904 5903 5903 5902 5902 5901 5901 5900 5899 5899 5898 5898 5897 5897 5896 5895 5894 5893 5892 5891 5890
5903 5905 5905 5905 5904 5905 5906 5907 5906 5907 5907 5907 5907 5907 5906 5907 5906 5906 5905 5905 5906 5906 5905 5905 5905 5905 5904 5904 5903 5903 5902 5902 5902 5901 5900 5899 5899 5898 5897 5897 5896 5896 5895 5894 5893 5891 5890 5889 5888
5900 5902 5904 5904 5905 5905 5905 5904 5905 5906 5906 5906 5906 5906 5905 5904 5905 5905 5905 5904 5904 5904 5904 5904 5904 5904 5903 5903 5903 5902 5902 5901 5901 5900 5899 5899 5898 5897 5896 5895 5895 5894 5893 5892 5891 5889 5888 5887 5886
5897 5899 5901 5902 5901 5903 5904 5904 5904 5904 5905 5904 5904 5904 5903 5903 5903 5903 5903 5903 5903 5903 5903 5903 5902 5902 5902 5902 5902 5901 5900 5900 5899 5898 5897 5897 5896 5896 5895 5894 5893 5892 5891 5890 5889 5887 5886 5885 5884
5894 5896 5898 5899 5899 5900 5900 5900 5901 5901 5901 5902 5902 5902 5901 5901 5901 5901 5900 5900 5901 5901 5900 5900 5901 5901 5900 5900 5900 5899 5899 5898 5897 5896 5896 5895 5894 5893 5892 5891 5890 5889 5888 5887 5886 5885 5884 5882 5881
5890 5892 5894 5895 5896 5898 5897 5899 5897 5898 5898 5898 5899 5899 5899 5899 5899 5899 5899 5898 5898 5898 5898 5898 5898 5898 5898 5898 5897 5897 5896 5895 5895 5894 5893 5892 5891 5891 5890 5889 5888 5886 5885 5884 5883 5882 5880 5879 5877
5885 5887 5890 5892 5892 5894 5894 5896 5893 5894 5895 5895 5895 5896 5896 5896 5896 5896 5896 5896 5895 5895 5895 5895 5895 5895 5895 5895 5894 5894 5893 5893 5892 5891 5890 5889 5888 5887 5886 5885 5884 5883 5882 5881 5880 5878 5876 5875 5874